Location: Nairn
(57.5833°N, 3.8667°W)
Time: 17:27:39
(UTC+00:00)

S-56A Canister/Altair - Pass Details

Date: 27 November 2020
Orbit: 633 x 2499 km, 38.9° (Epoch: 19 January)

Event Time Altitude Azimuth Distance (km) Brightness Sun altitude
Rises 22:26:45 0° 241° (WSW) 4,721 11.6 -49.7°
Enters shadow 22:27:21 - 240° (WSW) 4,541 11.5 -49.8°
Reaches altitude 10° 22:31:37 10° 223° (SW) 3,328 - -50.1°
Maximum altitude 22:36:07 16° 189° (S) 2,508 - -50.4°
Drops below altitude 10° 22:39:50 10° 152° (SSE) 2,639 - -50.7°
Sets 22:43:02 0° 131° (SE) 3,337 - -50.9°
